Weather History for Sedalia, MO

Change the Weather History Date:

Saturday, June 15, 2013

  Actual Average Record
Temperature  
Mean Temperature 77 °F 75 °F  
Max Temperature 85 °F 85 °F 99 °F (1952)
Min Temperature 69 °F 65 °F 49 °F (1969)
Degree Days  
Heating Degree Days 0 0  
Month to date heating degree days 9 4  
Since 1 June heating degree days 9 4  
Since 1 July heating degree days 4745 4569  
Cooling Degree Days 12 10  
Month to date cooling degree days 96 126  
Year to date cooling degree days 244 265  
Since 1 June cooling degree days 96 126  
Growing Degree Days 26 (Base 50)    
Moisture  
Dew Point 68 °F    
Average Humidity 85    
Maximum Humidity 100    
Minimum Humidity 69    
Precipitation  
Precipitation 1.13 in 0.17 in 3.11 in (1958)
Month to date precipitation 1.53 2.87  
Year to date precipitation 24.53 18.02  
Sea Level Pressure  
Sea Level Pressure 30.00 in    
Wind  
Wind Speed 10 mph (SW)    
Max Wind Speed 35 mph    
Max Gust Speed 46 mph    
Visibility 8 miles    
Events Rain , Thunderstorm    
T = Trace of Precipitation, MM = Missing Value Source: NWS Daily Summary

Daily Weather History Graph

Daily Weather History Graph

Search for Another Location

Airport:

Trip Planner

Search our weather history database for the weather conditions in past years. The results will help you decide how hot, cold, wet, or windy it might be!

Date:

Astronomy

Jun. 15, 2013 Rise Set
Actual Time 5:47 AM CDT 8:39 PM CDT
Civil Twilight 5:15 AM CDT 9:11 PM CDT
Nautical Twilight 4:35 AM CDT 9:51 PM CDT
Astronomical Twilight 3:49 AM CDT 10:37 PM CDT
Moon 12:18 PM CDT (6/15) 12:18 AM CDT (6/15)
Length of Visible Light 15h 55m
Length of Day
14h 51m
Waxing Crescent, 40% of the Moon is Illuminated
Jun 15
Waxing Crescent
Jun 16
First Quarter
Jun 23
Full
Jun 29
Last Quarter
Jul 8
New

Hourly Weather History & Observations

Time (CDT) Temp. Heat Index Dew Point Humidity Pressure Visibility Wind Dir Wind Speed Gust Speed Precip Events Conditions
12:53 AM 75.0 °F - 66.0 °F 73% 29.96 in 10.0 mi South 11.5 mph - N/A   Clear
1:53 AM 77.0 °F - 66.0 °F 69% 29.95 in 10.0 mi South 12.7 mph 23.0 mph N/A   Clear
2:53 AM 77.0 °F - 66.0 °F 69% 29.92 in 10.0 mi SSW 17.3 mph 31.1 mph N/A   Clear
3:53 AM 75.9 °F - 64.9 °F 69% 30.02 in 10.0 mi North 24.2 mph 33.4 mph N/A   Scattered Clouds
3:56 AM 75.2 °F - 64.4 °F 69% 30.05 in 10.0 mi North 26.5 mph 33.4 mph N/A   Mostly Cloudy
4:09 AM 75.2 °F - 62.6 °F 65% 30.05 in 10.0 mi NNE 17.3 mph 33.4 mph N/A   Overcast
4:19 AM 73.4 °F - 62.6 °F 69% 30.06 in 10.0 mi NNE 10.4 mph 23.0 mph N/A Thunderstorm Overcast
4:53 AM 69.1 °F - 64.9 °F 87% 30.01 in 10.0 mi ESE 9.2 mph - 0.07 in Rain , Thunderstorm Light Thunderstorms and Rain
5:29 AM 69.8 °F - 64.4 °F 83% 30.01 in 10.0 mi SSE 12.7 mph - 0.01 in   Partly Cloudy
5:53 AM 69.1 °F - 66.0 °F 90% 29.98 in 10.0 mi SSE 13.8 mph - 0.01 in   Clear
6:53 AM 70.0 °F - 66.0 °F 87% 30.03 in 10.0 mi North 10.4 mph - 0.00 in Rain Light Rain
7:53 AM 71.1 °F - 66.0 °F 84% 30.00 in 10.0 mi SE 10.4 mph - 0.00 in   Clear
8:53 AM 73.0 °F - 68.0 °F 84% 30.00 in 10.0 mi South 11.5 mph - N/A   Clear
9:53 AM 73.0 °F - 69.1 °F 87% 29.99 in 10.0 mi SSW 10.4 mph - N/A   Clear
10:53 AM 78.1 °F - 70.0 °F 76% 29.98 in 10.0 mi South 12.7 mph - N/A   Clear
11:53 AM 80.1 °F 83.6 °F 71.1 °F 74% 29.99 in 10.0 mi SW 10.4 mph - N/A   Clear
12:53 PM 82.9 °F 88.0 °F 72.0 °F 69% 29.98 in 10.0 mi SW 10.4 mph - N/A   Clear
1:53 PM 82.0 °F 86.7 °F 72.0 °F 71% 29.95 in 10.0 mi SW 10.4 mph - 0.00 in   Scattered Clouds
2:53 PM 82.9 °F 88.8 °F 73.0 °F 72% 29.93 in 10.0 mi SSW 11.5 mph - N/A   Clear
3:53 PM 82.9 °F 88.8 °F 73.0 °F 72% 29.92 in 10.0 mi Variable 5.8 mph - N/A   Scattered Clouds
4:25 PM 80.6 °F 85.4 °F 73.4 °F 79% 29.94 in 10.0 mi SSE 4.6 mph - 0.00 in Rain , Thunderstorm Light Thunderstorms and Rain
4:53 PM 79.0 °F - 68.0 °F 69% 29.94 in 5.0 mi Calm Calm - 0.09 in Rain , Thunderstorm Light Thunderstorms and Rain
5:07 PM 75.2 °F - 69.8 °F 83% 29.96 in 6.0 mi Variable 6.9 mph - 0.03 in Rain , Thunderstorm Light Thunderstorms and Rain
5:22 PM 73.4 °F - 68.0 °F 83% 30.01 in - Variable 3.5 mph - 0.20 in Thunderstorm Thunderstorm
5:26 PM 73.4 °F - 69.8 °F 88% 30.05 in 1.0 mi West 31.1 mph 44.9 mph 0.35 in Rain , Thunderstorm Heavy Thunderstorms and Rain
5:34 PM 69.8 °F - 66.2 °F 88% 30.03 in 0.8 mi West 24.2 mph 46.0 mph 0.55 in Rain , Thunderstorm Heavy Thunderstorms and Rain
5:38 PM 69.8 °F - 66.2 °F 88% 30.03 in 1.2 mi West 27.6 mph 46.0 mph 0.57 in Rain , Thunderstorm Heavy Thunderstorms and Rain
5:43 PM 69.8 °F - 66.2 °F 88% 30.05 in 2.0 mi WSW 20.7 mph 42.6 mph 0.63 in Rain , Thunderstorm Heavy Thunderstorms and Rain
5:47 PM 69.8 °F - 66.2 °F 88% 30.05 in 1.8 mi West 18.4 mph 42.6 mph 0.67 in Rain , Thunderstorm Heavy Thunderstorms and Rain
5:53 PM 69.1 °F - 66.9 °F 93% 30.05 in 2.5 mi West 18.4 mph 24.2 mph 0.69 in Rain , Thunderstorm Thunderstorms and Rain
6:00 PM 69.8 °F - 68.0 °F 94% 30.08 in 6.0 mi West 12.7 mph 23.0 mph 0.02 in Rain , Thunderstorm Light Thunderstorms and Rain
6:48 PM 69.8 °F - 69.8 °F 100% 30.06 in 5.0 mi WNW 5.8 mph - 0.16 in Rain Light Rain
6:53 PM 70.0 °F - 69.1 °F 97% 30.04 in 5.0 mi NW 5.8 mph - 0.17 in Rain Light Rain
7:06 PM 69.8 °F - 69.8 °F 100% 30.06 in 5.0 mi WNW 3.5 mph - 0.02 in Rain , Thunderstorm Light Thunderstorms and Rain
7:21 PM 69.8 °F - 69.8 °F 100% 30.05 in 10.0 mi South 3.5 mph - 0.03 in Rain Light Rain
7:53 PM 70.0 °F - 70.0 °F 100% 30.03 in 10.0 mi South 4.6 mph - 0.06 in Rain Light Rain
8:53 PM 69.1 °F - 68.0 °F 96% 29.98 in 10.0 mi South 13.8 mph - 0.02 in   Scattered Clouds
9:53 PM 71.1 °F - 64.0 °F 78% 29.93 in 10.0 mi South 17.3 mph 26.5 mph 0.00 in   Scattered Clouds
10:53 PM 72.0 °F - 64.9 °F 78% 29.92 in 10.0 mi SSW 5.8 mph - N/A   Mostly Cloudy
11:53 PM 73.0 °F - 64.0 °F 73% 29.96 in 10.0 mi WSW 8.1 mph - N/A   Overcast